Weather in Poselok 14 km dorogi Kem-Kalevala

Russia / Republic of Karelia     64°55′16″N   34°21′41″E
temp.,
°C
wind,
m/s
gust,
m/s
humid.,
%
clouds,
%
prec.,
mm/h
press.,
hPa
HPBL,
m
7 march, sun
sun700:00−7se71393100 0.7 987792
03:00−7ese81493100 1.7 987813
06:00−9ese81493100 1.3 988703
09:00−10e71393100 2.6 992724
12:00−10ene71189100 0.6 996670
15:00−11ene81488100 0.6 1000584
18:00−15ne61389100 0.0 1004409
21:00−18ne6129480 0.0 1007310
8 march, mon
mon800:00−21nne5109780 0.0 1010268
03:00−22nne599683 0.0 1012249
06:00−22nne489888 0.0 1013214
09:00−22nne479792 0.0 1015243
12:00−19nne469299 0.0 1016470
15:00−19nne469099 0.1 1018479
18:00−23ne239896 0.0 101823
21:00−25n129986 0.0 101920
9 march, tue
tue900:00−26nw119951 0.0 102019
03:00−26wnw239434 0.0 102121
06:00−26w238919 0.0 102033
09:00−23w368311 0.0 1020139
12:00−17wnw357941 0.0 1021249
15:00−14wnw348270 0.0 1022326
18:00−16w339265 0.0 102235
21:00−18wnw369538 0.0 102274
10 march, wed
wed1000:00−18w36950 0.0 102374
03:00−18w46954 0.0 1023110
06:00−18w479294 0.0 1022127
09:00−16w478997 0.0 1022200
12:00−13w478694 0.0 1022271
15:00−10w478669 0.0 1022348
18:00−13w36930 0.0 1021123
21:00−14w47940 0.0 1021120
11 march, thu
thu1100:00−15w47930 0.0 1020136
03:00−16wsw49890 0.0 1020161
06:00−18wsw49821 0.0 1018169
09:00−17wsw511781 0.0 1017251
12:00−12sw510700 0.0 1015429
15:00−9sw611700 0.0 1013734
18:00−11ssw410780 0.0 1010314
21:00−14s512850 0.0 1006302